Location: Trout Lake
(45.9980°N, 121.5270°W)
Time: 20:19:34
(UTC-08:00)

Cosmos 1833 Rocket - Pass Details

Date: 06 December 2023
Orbit: 831 x 840 km, 71.0° (Epoch: 22 February)

Event Time Altitude Azimuth Distance (km) Brightness Sun altitude
Rises 17:40:24 0° 341° (NNW) 3,400 5.9 -13.2°
Reaches altitude 10° 17:43:55 10° 3° (N) 2,463 4.9 -13.8°
Maximum altitude 17:47:16 16° 40° (NE) 2,076 4.2 -14.4°
Enters shadow 17:47:19 16° 41° (NE) 2,077 4.2 -14.4°
